Regional Weather Roundup
Issued by NWS

Home | Current Version | Previous Version | Text Only | Print | Product List | Glossary On
Versions: 1 2 3 4 5 6 7 8 9 10 11 12 13 14 15 16 17 18 19 20 21 22 23 24 25 26 27 28 29 30 31 32 33 34 35 36 37 38 39 40 41 42 43 44 45 46 47 48 49 50
000
ASUS43 KDTX 231810
RWRMI
MICHIGAN HOURLY REGIONAL WEATHER ROUNDUP
NATIONAL WEATHER SERVICE DETROIT/PONTIAC MI
ISSUED BY NATIONAL WEATHER SERVICE GRAND RAPIDS MI
100 PM EST THU FEB 23 2017

NOTE: "FAIR" INDICATES FEW OR NO CLOUDS BELOW 12,000 FEET WITH NO
SIGNIFICANT WEATHER AND/OR OBSTRUCTION TO VISIBILITY.

MIZ047>049-052>055-059>063-066>070-074>076-081>083-231900-
SOUTHEAST LOWER MICHIGAN

CITY           SKY/WX    TMP DP  RH WIND       PRES   REMARKS
ADRIAN         SUNNY     62  48  60 NW7       29.76S
6HR MIN TEMP:  50; 6HR MAX TEMP:  62;

ALMA           PTSUNNY   50  39  65 NW8       29.77F
6HR MIN TEMP:  48; 6HR MAX TEMP:  51;

ANN ARBOR      SUNNY     64  43  46 W9        29.74R
BAD AXE        PTSUNNY   50  39  67 W10G18    29.75R
6HR MIN TEMP:  49; 6HR MAX TEMP:  56;

DETROIT CITY   SUNNY     64  42  44 W13       29.73R
6HR MIN TEMP:  56; 6HR MAX TEMP:  65;

DETROIT        MOSUNNY   66  44  45 W8        29.75R
6HR MIN TEMP:  55; 6HR MAX TEMP:  66;

FLINT          PTSUNNY   57  43  59 W12       29.75R
6HR MIN TEMP:  53; 6HR MAX TEMP:  58;

GROSSE ILE     PTSUNNY   65  47  51 W9        29.73S
6HR MIN TEMP:  55; 6HR MAX TEMP:  66;

HILLSDALE      SUNNY     61  45  55 SW8       29.74F
HOWELL         MOSUNNY   59  41  51 NW3G9     29.74S
6HR MIN TEMP:  53; 6HR MAX TEMP:  60;


CITY           SKY/WX    TMP DP  RH WIND       PRES   REMARKS
JACKSON        SUNNY     62  41  46 NW9       29.73F
6HR MIN TEMP:  52; 6HR MAX TEMP:  62;

LANSING        MOSUNNY   54  42  64 VRB6      29.76F
6HR MIN TEMP:  51; 6HR MAX TEMP:  56;

MASON          MOSUNNY   58  45  62 SW5       29.74F
MONROE         SUNNY     65  49  56 NW14G23   29.74S
MT. CLEMENS    MOSUNNY   64  43  45 W8        29.72R
6HR MIN TEMP:  56; 6HR MAX TEMP:  64;

PONTIAC        MOSUNNY   60  42  51 W14       29.73R
6HR MIN TEMP:  54; 6HR MAX TEMP:  61;

PORT HOPE        N/A     48  39  71 W10       29.73R
6HR MIN TEMP:  48; 6HR MAX TEMP:  57;

PORT HURON     MOSUNNY   61  45  55 W6        29.73R
TRI CITIES     MOSUNNY   51  40  65 NW12      29.77R
6HR MIN TEMP:  50; 6HR MAX TEMP:  53;

YPSILANTI      SUNNY     66  44  45 W12       29.75R
6HR MIN TEMP:  54; 6HR MAX TEMP:  67;

$$
MIZ043>046-050>051-056>058-064>065-071>073-077>080-231900-
SOUTHWEST LOWER MICHIGAN

CITY           SKY/WX    TMP DP  RH WIND       PRES   REMARKS
BATTLE CREEK   SUNNY     53  44  71 NW9       29.77F
6HR MIN TEMP:  48; 6HR MAX TEMP:  55;

BENTON HARBOR  CLOUDY    42  36  79 N7        29.83R
6HR MIN TEMP:  41; 6HR MAX TEMP:  48;

BIG RAPIDS     CLOUDY    44  35  71 N12       29.78S
6HR MIN TEMP:  40; 6HR MAX TEMP:  46;

COLDWATER      SUNNY     59  45  60 W5        29.75F
6HR MIN TEMP:  49; 6HR MAX TEMP:  59;

HOLLAND        CLOUDY    46  39  76 W7        29.80R
6HR MIN TEMP:  41; 6HR MAX TEMP:  47;

GRAND RAPIDS   PTSUNNY   50  40  68 VRB7      29.78S
6HR MIN TEMP:  44; 6HR MAX TEMP:  50;

KALAMAZOO      PTSUNNY   50  41  71 W7        29.79F
6HR MIN TEMP:  49; 6HR MAX TEMP:  54;

MARSHALL       SUNNY     60  43  53 W3        29.74F
6HR MIN TEMP:  50; 6HR MAX TEMP:  60;

MOUNT PLEASANT PTSUNNY   50  37  62 NW8       29.76S
6HR MIN TEMP:  46; 6HR MAX TEMP:  50;

MUSKEGON       PTSUNNY   50  38  63 N5        29.79S
6HR MIN TEMP:  38; 6HR MAX TEMP:  50;

STURGIS        SUNNY     57  46  67 CALM      29.75F
6HR MIN TEMP:  49; 6HR MAX TEMP:  58;

$$
MIZ016>042-231900-
NORTHERN LOWER MICHIGAN

CITY           SKY/WX    TMP DP  RH WIND       PRES   REMARKS
ALPENA         CLOUDY    40  36  86 NW14G22   29.76R WCI  32
6HR MIN TEMP:  40; 6HR MAX TEMP:  47;

BEAVER ISLAND  PTSUNNY   38  32  78 NW8G16    29.83R WCI  33
6HR MIN TEMP:  34; 6HR MAX TEMP:  39;

BELLAIRE       CLOUDY    38  34  85 NW6       29.84R WCI  34
6HR MIN TEMP:  35; 6HR MAX TEMP:  38;

CADILLAC       CLOUDY    38  33  81 N10       29.79R WCI  31
CHARLEVOIX     PTSUNNY   38  36  94 NW6       29.86R WCI  33
6HR MIN TEMP:  35; 6HR MAX TEMP:  38;

GAYLORD        CLOUDY    37  32  82 NW8       29.78R WCI  31
6HR MIN TEMP:  35; 6HR MAX TEMP:  38; 6HR PCP: TRACE;

HOUGHTON LAKE  CLOUDY    39  32  76 NW14      29.79R WCI  31
6HR MIN TEMP:  37; 6HR MAX TEMP:  43;

MANISTEE       CLOUDY    38  33  82 N13       29.85R WCI  30
OSCODA         SUNNY     52  36  54 NW13G20   29.73R
6HR MIN TEMP:  46; 6HR MAX TEMP:  53;

PELLSTON       CLOUDY    39  32  76 NW17      29.80R WCI  30
6HR MIN TEMP:  35; 6HR MAX TEMP:  39; 6HR PCP: TRACE;

TRAVERSE CITY  CLOUDY    40  32  73 NW14      29.84R WCI  32
6HR MIN TEMP:  38; 6HR MAX TEMP:  40; 6HR PCP: TRACE;

LUDINGTON      CLOUDY    38  34  84 N9G16     29.83R WCI  32
6HR MIN TEMP:  37; 6HR MAX TEMP:  39;

$$
MIZ007>008-015-231900-
EASTERN UPPER MICHIGAN

CITY           SKY/WX    TMP DP  RH WIND       PRES   REMARKS
KINROSS        CLOUDY    35  29  78 NW20      29.77S WCI  24
6HR MIN TEMP:  34; 6HR MAX TEMP:  36; 6HR PCP:  0.13;

MACKINAC ISLAN CLOUDY    37  37 100 NW10      29.78R WCI  29
6HR MIN TEMP:  34; 6HR MAX TEMP:  37;

NEWBERRY       CLOUDY    33  25  72 NW15G24   29.80F WCI  23
6HR MIN TEMP:  32; 6HR MAX TEMP:  34;

S. S. MARIE    MOSUNNY   38  29  70 NW15G22   29.77S WCI  29
6HR MIN TEMP:  35; 6HR MAX TEMP:  39; 6HR PCP:  0.09;

$$
MIZ004>006-011>014-085-231900-
CENTRAL UPPER MICHIGAN

CITY           SKY/WX    TMP DP  RH WIND       PRES   REMARKS
MANISTIQUE     MOSUNNY   37  26  64 NW15G24   29.83R WCI  28
6HR MIN TEMP:  33; 6HR MAX TEMP:  38;

ESCANABA       CLOUDY    36  25  64 N10G16    29.89R WCI  28
6HR MIN TEMP:  34; 6HR MAX TEMP:  37;

MENOMINEE      MOSUNNY   39  26  59 NE10      29.89S WCI  32
6HR MIN TEMP:  35; 6HR MAX TEMP:  39; 6HR PCP: TRACE;

SAWYER-GWINN   CLOUDY    32  25  74 N8        29.86R WCI  25
$$
MIZ001>003-009>011-084-231900-
WESTERN UPPER MICHIGAN

CITY           SKY/WX    TMP DP  RH WIND       PRES   REMARKS
IRON MOUNTAIN  CLOUDY    34  24  67 N10G18    29.87R WCI  26
6HR MIN TEMP:  32; 6HR MAX TEMP:  34;

HOUGHTON       CLOUDY    33  22  63 NW13      29.85F WCI  24
6HR MIN TEMP:  26; 6HR MAX TEMP:  33;

COPPER HARBOR    N/A     34  25  69 N15       29.86S WCI  24
6HR MIN TEMP:  34; 6HR MAX TEMP:  35;

IRONWOOD       CLOUDY    33  24  69 NW5       29.92R WCI  29
6HR MIN TEMP:  30; 6HR MAX TEMP:  33; 6HR PCP: TRACE;

$$

ABBREVIATIONS USED IN REMARKS
   TC - TEMPERATURE IN CELSIUS
  WCI - WIND CHILL INDEX
   HX - HEAT INDEX
  VSB - VISIBILITY




USA.gov is the U.S. government's official web portal to all federal, state and local government web resources and services.